Location: Karcze
(52.0945°N, 22.4786°E)
Time: 00:15:35
(UTC+00:00)

A-11 Canister half - Pass Details

Date: 03 August 2021
Orbit: 1515 x 1685 km, 47.2° (Epoch: 19 September)

Event Time Altitude Azimuth Distance (km) Brightness Sun altitude
Rises 18:10:31 0° 268° (W) 4,840 12.8 0.0°
Reaches altitude 10° 18:13:37 10° 266° (W) 3,875 12.2 -0.4°
Maximum altitude 18:23:26 67° 187° (S) 1,791 9.3 -1.7°
Drops below altitude 10° 18:33:28 10° 108° (ESE) 3,949 10.5 -3.0°
Enters shadow 18:36:08 - 106° (ESE) 4,772 11.0 -3.4°
Sets 18:36:40 0° 106° (ESE) 4,937 - -3.4°
